TimeEST,TemperatureF,Dew PointF,Humidity,Sea Level PressureIn,VisibilityMPH,Wind Direction,Wind SpeedMPH,Gust SpeedMPH,PrecipitationIn,Events,Conditions,WindDirDegrees,DateUTC
12:53 AM,32.0,28.9,88,30.39,7.0,Calm,Calm,-,N/A,,Clear,0,2013-01-09 05:53:00
1:53 AM,34.0,30.0,85,30.38,7.0,Calm,Calm,-,N/A,,Clear,0,2013-01-09 06:53:00
2:53 AM,30.9,28.0,89,30.39,7.0,Calm,Calm,-,N/A,,Clear,0,2013-01-09 07:53:00
3:53 AM,30.0,27.0,88,30.38,5.0,Calm,Calm,-,N/A,,Mostly Cloudy,0,2013-01-09 08:53:00
4:53 AM,30.9,28.0,89,30.37,6.0,Calm,Calm,-,N/A,,Overcast,0,2013-01-09 09:53:00
5:53 AM,30.0,27.0,88,30.37,5.0,Calm,Calm,-,N/A,,Overcast,0,2013-01-09 10:53:00
6:53 AM,30.9,28.0,89,30.38,5.0,North,3.5,-,N/A,,Overcast,10,2013-01-09 11:53:00
7:53 AM,32.0,28.9,88,30.39,5.0,Calm,Calm,-,N/A,,Mostly Cloudy,0,2013-01-09 12:53:00
8:53 AM,34.0,30.0,85,30.39,5.0,Calm,Calm,-,N/A,,Partly Cloudy,0,2013-01-09 13:53:00
9:53 AM,42.1,34.0,73,30.39,5.0,Calm,Calm,-,N/A,,Haze,0,2013-01-09 14:53:00
10:53 AM,46.9,37.9,71,30.33,8.0,South,8.1,-,N/A,,Clear,180,2013-01-09 15:53:00
11:53 AM,48.0,37.0,66,30.29,10.0,SSW,12.7,-,N/A,,Clear,210,2013-01-09 16:53:00
12:53 PM,46.9,36.0,66,30.25,10.0,SSW,10.4,-,N/A,,Clear,200,2013-01-09 17:53:00
1:53 PM,46.9,35.1,63,30.25,10.0,WSW,9.2,-,N/A,,Mostly Cloudy,240,2013-01-09 18:53:00
2:53 PM,46.0,35.1,66,30.20,10.0,South,9.2,-,N/A,,Overcast,190,2013-01-09 19:53:00
3:53 PM,46.0,37.9,73,30.14,9.0,SSW,8.1,-,N/A,,Overcast,210,2013-01-09 20:53:00
4:53 PM,46.9,39.9,77,30.15,9.0,SW,8.1,-,N/A,,Overcast,230,2013-01-09 21:53:00
6:53 PM,46.9,39.0,74,30.17,10.0,WSW,9.2,-,N/A,,Partly Cloudy,240,2013-01-09 23:53:00
7:53 PM,48.0,37.0,66,30.18,10.0,West,13.8,-,N/A,,Clear,260,2013-01-10 00:53:00
9:53 PM,48.0,35.1,61,30.19,10.0,West,12.7,24.2,N/A,,Clear,270,2013-01-10 02:53:00
10:53 PM,46.9,33.1,59,30.21,10.0,West,13.8,-,N/A,,Clear,260,2013-01-10 03:53:00
11:53 PM,46.0,32.0,58,30.22,10.0,West,10.4,18.4,N/A,,Clear,270,2013-01-10 04:53:00